Погода в Бахте

Узбекистан     40˚42′51″N   68˚41′32″E
темп.,
°C
ветер,
м/с
пор.,
м/с
влажн.,
%
обл.,
%
осадки,
мм/ч
давл.,
гПа
погр.,
м
5 декабря, сб
сб523:00−1˚с22470 0.0 103121
02:00−3˚с22500 0.0 103121
05:00−3˚с22510 0.0 103221
08:00−3˚ссз11500 0.0 103221
11:00+1˚с11370 0.0 1030396
14:00+4˚с21345 0.0 1028548
17:00+2˚ссз234145 0.0 102929
20:00с334656 0.0 103060
6 декабря, вс
вс623:00−2˚с235028 0.0 103031
02:00−1˚ссз125073 0.0 103021
05:00−1˚ссз224986 0.0 103159
08:00−1˚ссз2250100 0.1 103175
11:00+2˚ссз214299 0.1 1030313
14:00+5˚ссз213967 0.0 1029460
17:00+4˚с234583 0.0 102946
20:00+2˚ссз235298 0.0 102978
7 декабря, пн
пн723:00ссз235766 0.0 102829
02:00−1˚сз236288 0.0 102854
05:00−2˚сз336694 0.0 102668
08:00−3˚зсз227197 0.0 102862
11:00зсз335498 0.0 1028346
14:00+1˚зсз2246100 0.0 1027482
17:00зсз2344100 0.0 1028234
20:00−1˚сз3540100 0.0 1030224
8 декабря, вт
вт823:00−3˚ссз344698 0.0 1031178
02:00−4˚ссз3448100 0.0 1031169
05:00−5˚сз2348100 0.0 1031165
08:00−5˚зсз2248100 0.0 1033216
11:00−2˚зсз2240100 0.0 1033364
14:00сз223597 0.0 1033532
17:00зсз234098 0.0 1034101
20:00−2˚сз234599 0.0 1036122
9 декабря, ср
ср923:00−2˚сз114698 0.0 103633
02:00−2˚з114796 0.0 103621
05:00−3˚ссз115172 0.0 103521
08:00−3˚сз11537 0.0 103521
11:00+1˚сз11434 0.0 1034326
14:00+4˚ссз22410 0.0 1031550
17:00+2˚ссз235122 0.0 103138
20:00сз335886 0.0 103177